Starlink 11419

operational
NORAD ID: 62883 Int'l Des: 2025-024 Owner: SPXS Country: US Constellation: starlink
LEOCIRCULAR

About Starlink 11419

Description loading...

Live Position

Loading 3D Globe...

Upcoming Passes

Altitude History

Altitude vs Time

uPlot chart will show altitude changes over time

Two-Line Element Set

1 62883U 25024E 25351.26677950 .00236841 00000-0 17892-2 0 9991
2 62883 42.9998 318.2725 0003145 273.6199 86.4309 15.70943591 50502
Epoch: Dec 17, 2025 • Age: 12 hours

Current Status

Altitude 362.1 km
Velocity 7.69 km/s
Sub-Earth Point -29.61°S, 175.42°E
Launch Date Feb 4, 2025
Age 0.8 years
Type internet

Technical Details

Classification Payload
Mass 960.00 kg
Dry Mass 910.00 kg
Total Mass 960.00 kg
Length 0.30 m
Diameter 4.10 m
Span 29.00 m
Shape Box + pan
Manufacturer SPXS
Bus Type Starlink V2MD
Phase Status In Orbit
Owner/State SPXS/US

Large Constellations

Loading constellations...